Regional Weather Roundup
Issued by NWS

Home | Current Version | Previous Version | Text Only | Print | Product List | Glossary Off
Versions: 1 2 3 4 5 6 7 8 9 10 11 12 13 14 15 16 17 18 19 20 21 22 23 24 25 26 27 28 29 30 31 32 33 34 35 36 37 38 39 40 41 42 43 44 45 46 47 48 49 50

000
ASUS45 KBOI 302210
RWRID
WEATHER ROUNDUP FOR IDAHO
NATIONAL WEATHER SERVICE BOISE ID
400 PM MDT WED JUL 30 2014

NOTE: "FAIR" INDICATES FEW OR NO CLOUDS BELOW 12000 FEET
WITH NO SIGNIFICANT WEATHER AND/OR OBSTRUCTIONS TO VISIBILITY

IDZ012-014-302300-
SOUTHWEST IDAHO


CITY           SKY/WX    TMP DP  RH WIND       PRES   REMARKS
BOISE          SUNNY     92  50  23 VRB6      30.07F
CALDWELL       SUNNY     91  54  27 N3        30.08F
MOUNTAIN HOME  MOSUNNY   94  46  19 S5        30.07F HX  90
$$

IDZ016-017-302300-
SOUTHCENTRAL IDAHO


CITY           SKY/WX    TMP DP  RH WIND       PRES   REMARKS
BURLEY         SUNNY     86  46  24 VRB3      30.15F
JEROME         SUNNY     86  53  32 W6        30.16F
TWIN FALLS     SUNNY     89  50  26 MISG      30.16F
$$

IDZ019>023-302300-
SOUTHEAST IDAHO


CITY           SKY/WX    TMP DP  RH WIND       PRES   REMARKS
IDAHO FALLS    MOSUNNY   83  49  30 SW13      30.23F
POCATELLO      MOSUNNY   85  49  28 E14       30.20F
REXBURG        MOSUNNY   81  45  28 VRB5      30.24F
$$

IDZ006-010-011-018-031-032-302300-
CENTRAL IDAHO MOUNTAINS


CITY           SKY/WX    TMP DP  RH WIND       PRES   REMARKS
MCCALL         MOSUNNY   86  36  16 SW12      30.20F
HAILEY         PTSUNNY   64  54  68 NW7       30.30R THUNDER
STANLEY          N/A     69  45  41 E6        30.35R
SALMON         CLOUDY    84  45  24 N9        30.10F
CHALLIS        CLOUDY    82  43  25 NW12      30.20F
$$

IDZ002-004-006-007-026-302300-
NORTHERN IDAHO


CITY           SKY/WX    TMP DP  RH WIND       PRES   REMARKS
LEWISTON       MOSUNNY  100  40  12 CALM      29.98F HX  95
LOWELL           N/A    101  46  15 VRB5      29.96F HX  97
COEUR D`ALENE  SUNNY     95  52  23 NW6       30.02F HX  92
MULLAN PASS    SUNNY     79  42  26 VRB6      30.31S
$$


USA.gov is the U.S. government's official web portal to all federal, state and local government web resources and services.